Weather History for KOFK - February, 2011

Change the Weather History Date:

Sunday, February 20, 2011

  Actual Average Record
Temperature  
Mean Temperature 28 °F 28 °F  
Max Temperature 41 °F 38 °F 66 °F (1930)
Min Temperature 14 °F 18 °F -16 °F (1918)
Degree Days  
Heating Degree Days 37 37  
Month to date heating degree days 771 787  
Since 1 July heating degree days 4859 4809  
Cooling Degree Days 0 0  
Month to date cooling degree days 0 0  
Year to date cooling degree days 0 0  
Moisture  
Dew Point 28 °F    
Average Humidity 87    
Maximum Humidity 100    
Minimum Humidity 73    
Precipitation  
Precipitation 0.36 in 0.03 in 0.53 in (1962)
Month to date precipitation 0.50 0.51  
Year to date precipitation 2.06 1.10  
Snow  
Snow T in 0.20 in - ()
Month to date snowfall 0.9 4.1  
Since 1 July snowfall 26.9 21.4  
Snow Depth 0.00 in    
Sea Level Pressure  
Sea Level Pressure 29.68 in    
Wind  
Wind Speed 16 mph (NNE)    
Max Wind Speed 28 mph    
Max Gust Speed 33 mph    
Visibility 6 miles    
Events Rain , Snow , Thunderstorm    
T = Trace of Precipitation, MM = Missing Value Source: NWS Daily Summary

Daily Weather History Graph

Daily Weather History Graph

Search for Another Location

Airport or City:

Trip Planner

Search our weather history database for the weather conditions in past years. The results will help you decide how hot, cold, wet, or windy it might be!

Date:

Astronomy

Feb. 20, 2011 Rise Set
Actual Time 7:18 AM CST 6:08 PM CST
Civil Twilight 6:50 AM CST 6:37 PM CST
Nautical Twilight 6:18 AM CST 7:09 PM CST
Astronomical Twilight 5:45 AM CST 7:41 PM CST
Moon 9:36 PM CST (2/20) 8:10 AM CST (2/20)
Length of Visible Light 11h 46m
Length of Day
10h 49m
Waning Gibbous, 92% of the Moon is Illuminated
Feb 20
Waning Gibbous
Feb 24
Last Quarter
Mar 4
New
Mar 12
First Quarter
Mar 19
Full

Hourly Weather History & Observations

Time (CST) Temp. Windchill Dew Point Humidity Pressure Visibility Wind Dir Wind Speed Gust Speed Precip Events Conditions
1:56 AM 39.0 °F 31.4 °F 32.0 °F 76% 29.84 in 10.0 mi East 12.7 mph - N/A   Overcast
2:16 AM 39.2 °F 32.0 °F 32.0 °F 75% 29.81 in 10.0 mi East 11.5 mph - N/A Thunderstorm Overcast
2:31 AM 37.4 °F 29.8 °F 32.0 °F 81% 29.78 in 9.0 mi East 11.5 mph - 0.00 in Rain Light Rain
2:56 AM 37.0 °F 28.5 °F 32.0 °F 82% 29.78 in 10.0 mi East 13.8 mph 20.7 mph 0.00 in Rain Light Rain
3:56 AM 35.1 °F 30.1 °F 32.0 °F 89% 29.77 in 7.0 mi ENE 5.8 mph - 0.08 in Rain Light Rain
4:27 AM 35.6 °F 29.2 °F 32.0 °F 87% 29.73 in 5.0 mi NE 8.1 mph - 0.00 in   Overcast
4:52 AM 33.8 °F 26.4 °F 33.8 °F 100% 29.72 in 2.5 mi NE 9.2 mph - 0.01 in   Overcast
4:56 AM 34.0 °F 25.0 °F 33.1 °F 96% 29.74 in 2.5 mi NE 12.7 mph - 0.01 in   Overcast
5:15 AM 33.8 °F 25.8 °F 32.0 °F 93% 29.71 in 2.5 mi NE 10.4 mph - 0.00 in   Overcast
5:24 AM 33.8 °F 25.3 °F 33.8 °F 100% 29.74 in 3.0 mi NNW 11.5 mph - 0.00 in   Overcast
5:28 AM 33.8 °F 27.0 °F 33.8 °F 100% 29.73 in 2.5 mi North 8.1 mph - 0.00 in Thunderstorm Overcast
5:39 AM 33.8 °F 24.8 °F 33.8 °F 100% 29.71 in 1.2 mi NE 12.7 mph 16.1 mph 0.10 in Rain , Thunderstorm Heavy Rain
5:52 AM 33.8 °F 23.9 °F 32.0 °F 93% 29.68 in 2.5 mi NE 15.0 mph - 0.20 in Rain , Thunderstorm Thunderstorms and Rain
5:56 AM 34.0 °F 24.6 °F 32.0 °F 92% 29.70 in 3.0 mi NE 13.8 mph - 0.21 in Rain , Thunderstorm Thunderstorms and Rain
6:04 AM 33.8 °F 24.8 °F 32.0 °F 93% 29.66 in 5.0 mi ENE 12.7 mph - 0.01 in Rain , Thunderstorm Light Rain
6:12 AM 33.8 °F 23.5 °F 32.0 °F 93% 29.65 in 8.0 mi ENE 16.1 mph - 0.01 in   Overcast
6:56 AM 33.1 °F 23.4 °F 30.9 °F 92% 29.66 in 6.0 mi ENE 13.8 mph - 0.01 in   Overcast
7:56 AM 33.1 °F 26.1 °F 32.0 °F 96% 29.65 in 2.0 mi East 8.1 mph - 0.00 in Rain Light Rain
8:19 AM 33.8 °F 25.8 °F 32.0 °F 93% 29.60 in 1.8 mi ENE 10.4 mph - 0.00 in Rain Light Rain
8:36 AM 33.8 °F 25.3 °F 32.0 °F 93% 29.59 in 2.0 mi ENE 11.5 mph - 0.01 in Rain Light Rain
8:51 AM 33.8 °F 27.0 °F 32.0 °F 93% 29.59 in 1.2 mi ENE 8.1 mph - 0.01 in Rain Light Rain
8:56 AM 34.0 °F 25.5 °F 32.0 °F 92% 29.61 in 1.5 mi ENE 11.5 mph - 0.01 in   Overcast
9:56 AM 34.0 °F 26.6 °F 33.1 °F 96% 29.58 in 1.0 mi NE 9.2 mph - 0.01 in Rain Light Rain
10:56 AM 35.1 °F 27.9 °F 33.1 °F 92% 29.56 in 1.5 mi ENE 9.2 mph - 0.01 in   Overcast
11:11 AM 35.6 °F 29.9 °F 33.8 °F 93% 29.52 in 2.0 mi ENE 6.9 mph - N/A   Overcast
11:30 AM 35.6 °F 29.9 °F 33.8 °F 93% 29.51 in 3.0 mi NE 6.9 mph - N/A   Overcast
11:45 AM 35.6 °F 29.2 °F 33.8 °F 93% 29.51 in 2.0 mi NE 8.1 mph - N/A   Overcast
11:52 AM 35.6 °F 30.7 °F 33.8 °F 93% 29.52 in 1.5 mi NNE 5.8 mph - N/A   Overcast
11:56 AM 35.1 °F 29.3 °F 33.1 °F 92% 29.57 in 1.5 mi NNW 6.9 mph - N/A   Overcast
12:56 PM 35.1 °F 24.8 °F 33.1 °F 92% 29.58 in 1.8 mi NW 17.3 mph 23.0 mph 0.02 in   Overcast
1:03 PM 35.6 °F 26.2 °F 33.8 °F 93% 29.55 in 2.5 mi NW 15.0 mph - N/A   Overcast
1:08 PM 35.6 °F 25.2 °F 33.8 °F 93% 29.55 in 3.0 mi NW 18.4 mph - N/A   Overcast
1:56 PM 32.0 °F 20.1 °F 28.9 °F 88% 29.60 in 10.0 mi NW 19.6 mph 26.5 mph N/A   Overcast
2:56 PM 28.9 °F 14.8 °F 25.0 °F 85% 29.61 in 10.0 mi NW 24.2 mph 29.9 mph N/A   Overcast
3:36 PM 26.6 °F 12.7 °F 23.0 °F 86% 29.60 in 10.0 mi NW 20.7 mph 27.6 mph N/A   Overcast
3:56 PM 27.0 °F 13.5 °F 21.9 °F 81% 29.65 in 10.0 mi WNW 19.6 mph 25.3 mph N/A   Overcast
4:56 PM 24.1 °F 8.7 °F 19.0 °F 81% 29.70 in 10.0 mi NW 23.0 mph 28.8 mph N/A   Overcast
5:56 PM 21.9 °F 7.3 °F 18.0 °F 85% 29.75 in 10.0 mi NW 18.4 mph 26.5 mph N/A   Overcast
6:56 PM 21.0 °F 4.6 °F 16.0 °F 81% 29.79 in 10.0 mi NW 23.0 mph 28.8 mph N/A   Overcast
7:56 PM 19.9 °F 5.7 °F 15.1 °F 81% 29.82 in 10.0 mi NW 16.1 mph 23.0 mph N/A   Overcast
8:56 PM 18.0 °F 0.6 °F 12.9 °F 81% 29.83 in 10.0 mi NW 23.0 mph 31.1 mph N/A   Overcast
9:56 PM 16.0 °F -2.1 °F 10.0 °F 77% 29.84 in 10.0 mi NW 23.0 mph 29.9 mph 0.00 in   Overcast
10:09 PM 15.8 °F -1.9 °F 10.4 °F 79% 29.79 in 10.0 mi WNW 21.9 mph 31.1 mph N/A   Overcast
10:56 PM 15.1 °F -2.0 °F 9.0 °F 77% 29.85 in 10.0 mi WNW 19.6 mph 29.9 mph 0.00 in   Overcast
11:56 PM 14.0 °F -5.1 °F 8.1 °F 77% 29.85 in 9.0 mi NW 24.2 mph 31.1 mph 0.00 in Snow Light Snow